"Pseudo-MPEC" for CD6HR92
Created 2025 Apr 20 9:31:03 UT using Find_Orb
Click here for an explanation of pseudo-MPECs
Astrometry: CD6HR92*1C2025 04 15.38977212 27 40.352+42 37 07.72 ~4FA2 VNEOCPG96 CD6HR92 1C2025 04 15.40019012 27 51.635+42 36 11.66 ~4FA2 20.57GVNEOCPG96 CD6HR92 1C2025 04 15.40538712 27 57.154+42 35 45.67 ~4FA2 21.23GVNEOCPG96 Station data: (G96) Mt. Lemmon Survey (N32.442729 W110.788720) US/Arizona. Observer E. J. Christensen. + 10K CCD. Orbital elements: CD6HR92 Perihelion 2025 Mar 6.59058 +/- 27.7 TT = 14:10:26 (JD 2460741.09058) Epoch 2025 Apr 15.0 TT = JDT 2460780.5 Earth MOID: 0.0039 Ma: 0.0900 M 23.69435186 +/- 29 (J2000 ecliptic) AutoNEOCP n 0.60123574 +/- 0.428 Peri. 329.43618 +/- 70 a 1.39029253 +/- 0.661 Node 189.30301 +/- 60 e 0.3088990 +/- 0.246 Incl. 7.21205 +/- 17 P 1.639/598.755d H 25.68 G 0.15 U 12.2 SR q 0.96083248 +/- 0.199 Q 1.81975257 +/- 40.3 From 3 observations 2025 Apr. 15 (22.5 min); mean residual 0".54
Residuals in arcseconds: 250415 G96 .19- .30+ 250415 G96 .56+ .89- 250415 G96 .37- .60+ Ephemerides (geocentric): Date (UTC) HH RA Dec delta r elong mag " sig PA ---- -------- ------------ ------------ ------ ------ ----- --- -------- 2025 04 20 10 13 33 49.141 +36 03 48.08 .06713 1.0509 132.2 21.6 35d 61 2025 04 20 11 13 34 11.201 +36 00 51.46 .06729 1.0511 132.2 21.6 35d 61 2025 04 20 12 13 34 33.135 +35 57 55.24 .06744 1.0512 132.3 21.6 35d 61 2025 04 20 13 13 34 54.943 +35 54 59.44 .06759 1.0514 132.3 21.7 35d 61 2025 04 20 14 13 35 16.626 +35 52 04.04 .06775 1.0516 132.3 21.7 35d 61 2025 04 20 15 13 35 38.185 +35 49 09.06 .06790 1.0517 132.4 21.7 35d 61 2025 04 20 16 13 35 59.621 +35 46 14.48 .06805 1.0519 132.4 21.7 35d 61 2025 04 20 17 13 36 20.935 +35 43 20.31 .06821 1.0520 132.5 21.7 35d 61 2025 04 20 18 13 36 42.127 +35 40 26.56 .06836 1.0522 132.5 21.7 36d 61 2025 04 20 19 13 37 03.199 +35 37 33.21 .06852 1.0523 132.5 21.7 36d 61 2025 04 20 20 13 37 24.152 +35 34 40.27 .06867 1.0525 132.6 21.7 36d 61 2025 04 20 21 13 37 44.985 +35 31 47.75 .06883 1.0526 132.6 21.7 36d 61 2025 04 20 22 13 38 05.701 +35 28 55.63 .06898 1.0528 132.6 21.7 36d 61 2025 04 20 23 13 38 26.301 +35 26 03.92 .06914 1.0529 132.7 21.7 36d 61 2025 04 21 00 13 38 46.784 +35 23 12.62 .06929 1.0531 132.7 21.7 36d 61 2025 04 21 01 13 39 07.152 +35 20 21.73 .06945 1.0532 132.8 21.7 36d 61 2025 04 21 02 13 39 27.405 +35 17 31.25 .06960 1.0534 132.8 21.7 36d 61 2025 04 21 03 13 39 47.546 +35 14 41.18 .06976 1.0535 132.8 21.7 36d 61 2025 04 21 04 13 40 07.573 +35 11 51.51 .06991 1.0537 132.9 21.7 36d 61 2025 04 21 05 13 40 27.489 +35 09 02.26 .07007 1.0539 132.9 21.7 37d 61 2025 04 21 06 13 40 47.293 +35 06 13.41 .07023 1.0540 132.9 21.7 37d 61 2025 04 21 07 13 41 06.988 +35 03 24.97 .07038 1.0542 133.0 21.7 37d 61 2025 04 21 08 13 41 26.573 +35 00 36.93 .07054 1.0543 133.0 21.7 37d 61 2025 04 21 09 13 41 46.049 +34 57 49.30 .07070 1.0545 133.0 21.7 37d 61 2025 04 21 10 13 42 05.418 +34 55 02.08 .07085 1.0546 133.1 21.7 37d 61 2025 04 21 11 13 42 24.679 +34 52 15.26 .07101 1.0548 133.1 21.7 37d 61 2025 04 21 12 13 42 43.834 +34 49 28.85 .07117 1.0549 133.1 21.7 37d 61 2025 04 21 13 13 43 02.884 +34 46 42.84 .07133 1.0551 133.2 21.8 37d 61 2025 04 21 14 13 43 21.829 +34 43 57.23 .07148 1.0552 133.2 21.8 37d 61 2025 04 21 15 13 43 40.670 +34 41 12.03 .07164 1.0554 133.2 21.8 37d 61 2025 04 21 16 13 43 59.408 +34 38 27.23 .07180 1.0555 133.3 21.8 37d 61 2025 04 21 17 13 44 18.043 +34 35 42.84 .07196 1.0557 133.3 21.8 38d 61 2025 04 21 18 13 44 36.577 +34 32 58.84 .07211 1.0559 133.3 21.8 38d 61 2025 04 21 19 13 44 55.009 +34 30 15.25 .07227 1.0560 133.4 21.8 38d 61 2025 04 21 20 13 45 13.342 +34 27 32.05 .07243 1.0562 133.4 21.8 38d 61 2025 04 21 21 13 45 31.574 +34 24 49.25 .07259 1.0563 133.4 21.8 38d 61 2025 04 21 22 13 45 49.708 +34 22 06.86 .07275 1.0565 133.5 21.8 38d 61 2025 04 21 23 13 46 07.744 +34 19 24.86 .07291 1.0566 133.5 21.8 38d 61 2025 04 22 00 13 46 25.682 +34 16 43.25 .07307 1.0568 133.5 21.8 38d 61 2025 04 22 01 13 46 43.524 +34 14 02.05 .07323 1.0569 133.6 21.8 38d 61 2025 04 22 02 13 47 01.269 +34 11 21.24 .07338 1.0571 133.6 21.8 38d 61 2025 04 22 03 13 47 18.919 +34 08 40.82 .07354 1.0573 133.6 21.8 38d 61 2025 04 22 04 13 47 36.475 +34 06 00.80 .07370 1.0574 133.7 21.8 38d 61 2025 04 22 05 13 47 53.936 +34 03 21.17 .07386 1.0576 133.7 21.8 38d 61 2025 04 22 06 13 48 11.304 +34 00 41.93 .07402 1.0577 133.7 21.8 38d 61 2025 04 22 07 13 48 28.579 +33 58 03.09 .07418 1.0579 133.8 21.8 39d 61 2025 04 22 08 13 48 45.763 +33 55 24.63 .07434 1.0580 133.8 21.8 39d 61 2025 04 22 09 13 49 02.854 +33 52 46.56 .07450 1.0582 133.8 21.8 39d 61